�������l�o���
Date,Time,MP-1(��Sv/h),MP-2(��Sv/h),MP-3(��Sv/h),MP-4(��Sv/h),MP-5(��Sv/h),MP-6(��Sv/h),MP-7(��Sv/h),MP-8(��Sv/h),����,����(m/s),���J
2020/02/28,00:00,0.679,0.973,0.642,1.198,0.849,0.392,0.689,0.656,�k��,3.0,��
2020/02/28,00:10,0.679,0.972,0.641,1.199,0.852,0.390,0.688,0.656,���k��,1.2,��
2020/02/28,00:20,0.679,0.972,0.640,1.196,0.852,0.392,0.689,0.656,���k��,4.7,��
2020/02/28,00:30,0.678,0.972,0.641,1.195,0.849,0.391,0.690,0.655,���k��,6.5,��
2020/02/28,00:40,0.678,0.973,0.643,1.197,0.852,0.391,0.689,0.656,���k��,6.2,��
2020/02/28,00:50,0.678,0.972,0.642,1.197,0.851,0.392,0.691,0.655,���k��,5.2,��
2020/02/28,01:00,0.679,0.971,0.641,1.197,0.851,0.392,0.689,0.655,���k��,5.2,��
2020/02/28,01:10,0.678,0.972,0.644,1.197,0.851,0.392,0.690,0.656,���k��,5.3,��
2020/02/28,01:20,0.680,0.971,0.641,1.197,0.850,0.391,0.691,0.655,���k��,5.2,��
2020/02/28,01:30,0.678,0.970,0.640,1.195,0.850,0.391,0.691,0.655,���k��,4.3,��
2020/02/28,01:40,0.680,0.972,0.641,1.199,0.850,0.391,0.690,0.656,���k��,4.6,��
2020/02/28,01:50,0.679,0.969,0.641,1.198,0.852,0.393,0.689,0.656,���k��,4.1,��
2020/02/28,02:00,0.680,0.973,0.642,1.198,0.850,0.391,0.689,0.657,���k��,4.3,��
2020/02/28,02:10,0.678,0.969,0.643,1.196,0.851,0.393,0.689,0.657,��,3.3,��
2020/02/28,02:20,0.680,0.970,0.642,1.199,0.848,0.391,0.689,0.655,���k��,3.5,��
2020/02/28,02:30,0.679,0.970,0.641,1.198,0.850,0.391,0.689,0.656,���k��,4.0,��
2020/02/28,02:40,0.681,0.972,0.640,1.196,0.849,0.391,0.689,0.657,���k��,2.6,��
2020/02/28,02:50,0.677,0.969,0.642,1.197,0.850,0.392,0.689,0.657,���k��,2.6,��
2020/02/28,03:00,0.680,0.970,0.640,1.197,0.851,0.391,0.689,0.655,�k��,2.0,��
2020/02/28,03:10,0.679,0.971,0.641,1.198,0.849,0.391,0.688,0.655,�k��,4.1,��
2020/02/28,03:20,0.680,0.969,0.642,1.198,0.851,0.390,0.691,0.656,�k��,2.9,��
2020/02/28,03:30,0.678,0.970,0.641,1.199,0.851,0.390,0.690,0.656,�k�k��,2.6,��
2020/02/28,03:40,0.679,0.970,0.641,1.197,0.848,0.391,0.689,0.656,�k�k��,3.8,��
2020/02/28,03:50,0.678,0.971,0.640,1.198,0.850,0.392,0.690,0.656,�k�k��,2.8,��
2020/02/28,04:00,0.678,0.969,0.642,1.198,0.850,0.391,0.689,0.656,�k�k��,3.6,��
2020/02/28,04:10,0.678,0.970,0.640,1.197,0.848,0.392,0.688,0.656,�k��,3.8,��
2020/02/28,04:20,0.678,0.968,0.641,1.198,0.849,0.393,0.689,0.656,�k�k��,3.5,��
2020/02/28,04:30,0.678,0.971,0.640,1.197,0.849,0.392,0.689,0.656,�k�k��,3.8,��
2020/02/28,04:40,0.679,0.968,0.642,1.196,0.850,0.393,0.688,0.656,�k�k��,2.8,��
2020/02/28,04:50,0.679,0.968,0.641,1.198,0.848,0.392,0.689,0.658,�k�k��,2.9,��
2020/02/28,05:00,0.678,0.967,0.642,1.199,0.848,0.391,0.688,0.657,�k��,3.0,��
2020/02/28,05:10,0.677,0.969,0.639,1.195,0.849,0.392,0.688,0.656,�k��,5.5,��
2020/02/28,05:20,0.678,0.970,0.641,1.197,0.849,0.391,0.687,0.656,�k��,6.8,��
2020/02/28,05:30,0.677,0.967,0.640,1.196,0.850,0.392,0.689,0.658,�k��,7.0,��
2020/02/28,05:40,0.676,0.968,0.640,1.198,0.850,0.393,0.687,0.657,�k��,6.8,��
2020/02/28,05:50,0.677,0.969,0.641,1.196,0.848,0.393,0.688,0.657,�k�k��,6.1,��
2020/02/28,06:00,0.677,0.969,0.640,1.199,0.849,0.391,0.688,0.656,�k��,7.3,��
2020/02/28,06:10,0.676,0.967,0.643,1.200,0.849,0.392,0.687,0.656,�k��,8.0,��
2020/02/28,06:20,0.678,0.966,0.641,1.197,0.849,0.392,0.687,0.657,�k��,7.4,��
2020/02/28,06:30,0.676,0.967,0.641,1.199,0.847,0.390,0.690,0.656,�k��,7.7,��
2020/02/28,06:40,0.679,0.969,0.640,1.197,0.848,0.390,0.689,0.656,�k��,7.4,��
2020/02/28,06:50,0.679,0.967,0.640,1.200,0.846,0.389,0.689,0.655,�k��,7.5,��
2020/02/28,07:00,0.676,0.969,0.640,1.198,0.849,0.389,0.689,0.656,���k��,7.4,��
2020/02/28,07:10,0.677,0.966,0.642,1.200,0.848,0.390,0.690,0.657,�k��,5.0,��
2020/02/28,07:20,0.677,0.967,0.641,1.198,0.847,0.389,0.692,0.656,�k��,5.9,��
2020/02/28,07:30,0.678,0.967,0.640,1.197,0.848,0.391,0.690,0.656,�k��,5.5,��
2020/02/28,07:40,0.676,0.969,0.641,1.199,0.848,0.390,0.690,0.657,�k��,8.0,��
2020/02/28,07:50,0.679,0.967,0.639,1.199,0.849,0.391,0.691,0.657,�k��,5.5,��
2020/02/28,08:00,0.679,0.970,0.640,1.198,0.848,0.390,0.691,0.655,���k��,4.3,��
2020/02/28,08:10,0.680,0.970,0.641,1.199,0.848,0.392,0.690,0.657,�k��,2.2,��
2020/02/28,08:20,0.680,0.969,0.641,1.198,0.850,0.390,0.692,0.655,�k��,5.5,��
2020/02/28,08:30,0.680,0.964,0.640,1.199,0.849,0.390,0.693,0.656,�k��,5.3,��
2020/02/28,08:40,0.682,0.970,0.640,1.201,0.849,0.391,0.692,0.658,�k��,7.0,��
2020/02/28,08:50,0.681,0.971,0.641,1.199,0.853,0.391,0.691,0.657,�k��,5.7,��
2020/02/28,09:00,0.683,0.970,0.642,1.198,0.853,0.391,0.691,0.658,�k��,7.0,��
2020/02/28,09:10,0.681,0.970,0.643,1.200,0.852,0.391,0.690,0.658,�k��,7.0,��
2020/02/28,09:20,0.682,0.969,0.642,1.200,0.850,0.391,0.689,0.658,�k��,5.6,��
2020/02/28,09:30,0.681,0.971,0.644,1.200,0.852,0.391,0.690,0.657,�k��,5.3,��
2020/02/28,09:40,0.681,0.967,0.642,1.201,0.854,0.392,0.691,0.658,���k��,5.6,��
2020/02/28,09:50,0.682,0.973,0.642,1.202,0.854,0.392,0.689,0.657,�k��,7.7,��
2020/02/28,10:00,0.682,0.967,0.642,1.200,0.852,0.391,0.690,0.658,�k��,8.4,��
2020/02/28,10:10,0.683,0.969,0.642,1.203,0.854,0.392,0.689,0.660,�k��,7.8,��
2020/02/28,10:20,0.682,0.971,0.643,1.201,0.852,0.392,0.689,0.658,�k��,7.2,��
2020/02/28,10:30,0.683,0.973,0.643,1.204,0.853,0.393,0.691,0.659,�k�k��,6.9,��
2020/02/28,10:40,0.682,0.974,0.643,1.200,0.855,0.393,0.692,0.658,�k��,3.6,��
2020/02/28,10:50,0.684,0.975,0.643,1.204,0.856,0.394,0.691,0.660,��,4.4,��
2020/02/28,11:00,0.683,0.974,0.644,1.203,0.857,0.394,0.690,0.658,���k��,3.9,��
2020/02/28,11:10,0.685,0.975,0.645,1.202,0.855,0.395,0.689,0.661,���k��,3.1,��
2020/02/28,11:20,0.685,0.974,0.645,1.204,0.859,0.393,0.688,0.659,���k��,2.3,��
2020/02/28,11:30,0.684,0.974,0.645,1.202,0.859,0.394,0.690,0.659,��,3.6,��
2020/02/28,11:40,0.684,0.973,0.645,1.203,0.857,0.395,0.690,0.659,���k��,3.3,��
2020/02/28,11:50,0.685,0.975,0.645,1.204,0.856,0.394,0.690,0.659,�k��,5.8,��
2020/02/28,12:00,0.686,0.974,0.647,1.205,0.859,0.396,0.690,0.661,�k��,5.3,��
2020/02/28,12:10,0.688,0.976,0.647,1.207,0.857,0.395,0.690,0.660,�k��,5.7,��
2020/02/28,12:20,0.687,0.976,0.649,1.207,0.861,0.395,0.689,0.659,�k��,4.7,��
2020/02/28,12:30,0.685,0.978,0.648,1.206,0.859,0.394,0.690,0.661,�k��,3.5,��
2020/02/28,12:40,0.686,0.977,0.648,1.205,0.857,0.394,0.689,0.659,�k��,2.6,��
2020/02/28,12:50,0.687,0.979,0.648,1.207,0.859,0.393,0.690,0.660,�k�k��,4.1,��
2020/02/28,13:00,0.688,0.975,0.648,1.206,0.862,0.394,0.690,0.658,�k��,6.5,��
2020/02/28,13:10,0.686,0.978,0.648,1.205,0.860,0.393,0.691,0.659,�k��,6.8,��
2020/02/28,13:20,0.685,0.977,0.647,1.205,0.859,0.394,0.690,0.660,�k��,5.7,��
2020/02/28,13:30,0.684,0.979,0.648,1.205,0.859,0.394,0.692,0.658,�k��,5.3,��
2020/02/28,13:40,0.687,0.978,0.646,1.206,0.859,0.394,0.689,0.657,���k��,5.2,��
2020/02/28,13:50,0.684,0.979,0.648,1.207,0.859,0.396,0.690,0.658,�k��,4.8,��
2020/02/28,14:00,0.684,0.981,0.646,1.207,0.859,0.395,0.691,0.658,���k��,4.8,��
2020/02/28,14:10,0.684,0.981,0.648,1.206,0.860,0.395,0.689,0.658,���k��,4.7,��
2020/02/28,14:20,0.684,0.980,0.648,1.207,0.861,0.396,0.690,0.659,���k��,5.2,��
2020/02/28,14:30,0.685,0.981,0.648,1.206,0.862,0.394,0.691,0.661,���k��,5.2,��
2020/02/28,14:40,0.686,0.978,0.647,1.206,0.862,0.396,0.690,0.660,���k��,4.6,��
2020/02/28,14:50,0.686,0.980,0.647,1.204,0.862,0.395,0.691,0.659,��,4.1,��
2020/02/28,15:00,0.685,0.981,0.649,1.207,0.863,0.396,0.693,0.660,��,3.8,��
2020/02/28,15:10,0.685,0.981,0.648,1.206,0.864,0.396,0.692,0.658,��,3.6,��
2020/02/28,15:20,0.685,0.982,0.649,1.206,0.865,0.395,0.690,0.658,��,3.6,��
2020/02/28,15:30,0.686,0.983,0.649,1.209,0.865,0.395,0.694,0.661,���쓌,3.2,��
2020/02/28,15:40,0.686,0.984,0.646,1.207,0.862,0.396,0.691,0.661,��,2.5,��
2020/02/28,15:50,0.688,0.984,0.649,1.205,0.863,0.396,0.692,0.660,���쓌,2.2,��
2020/02/28,16:00,0.686,0.983,0.649,1.206,0.863,0.394,0.691,0.659,��,1.7,��
2020/02/28,16:10,0.687,0.985,0.648,1.207,0.864,0.395,0.691,0.659,���쓌,2.0,��
2020/02/28,16:20,0.687,0.985,0.649,1.205,0.862,0.395,0.692,0.660,���쓌,2.3,��
2020/02/28,16:30,0.687,0.985,0.649,1.208,0.863,0.396,0.692,0.661,���쓌,2.3,��
2020/02/28,16:40,0.687,0.986,0.649,1.208,0.863,0.396,0.693,0.660,���쓌,2.2,��
2020/02/28,16:50,0.687,0.985,0.648,1.206,0.863,0.395,0.691,0.659,�쓌,2.0,�L
2020/02/28,17:00,0.686,0.985,0.649,1.206,0.863,0.396,0.694,0.659,�쓌,1.1,�L
2020/02/28,17:10,0.687,0.985,0.649,1.207,0.864,0.396,0.693,0.659,��쓌,1.4,�L
2020/02/28,17:20,0.686,0.983,0.650,1.205,0.864,0.395,0.693,0.660,��쓌,1.1,�L
2020/02/28,17:30,0.684,0.985,0.649,1.207,0.865,0.396,0.691,0.660,��쐼,0.8,�L
2020/02/28,17:40,0.686,0.984,0.650,1.206,0.860,0.395,0.692,0.659,��쐼,1.8,�L
2020/02/28,17:50,0.686,0.986,0.648,1.209,0.864,0.397,0.692,0.660,��쐼,1.8,��
2020/02/28,18:00,0.686,0.986,0.648,1.208,0.863,0.398,0.693,0.658,��,1.8,�L
2020/02/28,18:10,0.687,0.987,0.650,1.208,0.861,0.397,0.693,0.659,��,2.0,��
2020/02/28,18:20,0.687,0.985,0.649,1.204,0.862,0.398,0.694,0.659,��,1.9,��
2020/02/28,18:30,0.685,0.986,0.650,1.207,0.862,0.397,0.693,0.660,��,2.0,��
2020/02/28,18:40,0.684,0.985,0.650,1.204,0.864,0.395,0.694,0.659,��쓌,2.0,��
2020/02/28,18:50,0.687,0.984,0.649,1.207,0.865,0.396,0.693,0.660,��,2.0,��
2020/02/28,19:00,0.686,0.986,0.648,1.206,0.863,0.397,0.691,0.659,��쐼,2.0,��
2020/02/28,19:10,0.685,0.984,0.649,1.208,0.863,0.396,0.691,0.657,�쐼,1.7,��
2020/02/28,19:20,0.688,0.985,0.649,1.207,0.864,0.396,0.692,0.658,���쐼,1.2,��
2020/02/28,19:30,0.688,0.985,0.650,1.207,0.862,0.396,0.693,0.658,�쐼,1.2,��
2020/02/28,19:40,0.686,0.986,0.650,1.206,0.863,0.396,0.693,0.658,��,1.7,��
2020/02/28,19:50,0.687,0.986,0.649,1.208,0.864,0.396,0.694,0.660,���k��,2.0,��
2020/02/28,20:00,0.686,0.985,0.648,1.207,0.864,0.396,0.693,0.659,�k��,1.9,��
2020/02/28,20:10,0.687,0.983,0.649,1.204,0.863,0.396,0.691,0.658,�k��,1.9,��
2020/02/28,20:20,0.686,0.985,0.650,1.206,0.864,0.395,0.692,0.659,�k��,1.9,��
2020/02/28,20:30,0.687,0.984,0.651,1.208,0.863,0.396,0.691,0.659,�k��,1.5,��
2020/02/28,20:40,0.685,0.984,0.649,1.205,0.862,0.396,0.693,0.659,�k��,1.9,��
2020/02/28,20:50,0.685,0.983,0.650,1.206,0.865,0.395,0.692,0.659,�k��,1.7,��
2020/02/28,21:00,0.686,0.983,0.649,1.205,0.864,0.395,0.693,0.660,�k��,2.2,��
2020/02/28,21:10,0.687,0.985,0.649,1.205,0.861,0.395,0.692,0.659,�k��,3.2,��
2020/02/28,21:20,0.686,0.985,0.649,1.206,0.864,0.396,0.693,0.659,�k�k��,2.8,��
2020/02/28,21:30,0.685,0.986,0.649,1.208,0.865,0.396,0.693,0.660,�k�k��,2.9,��
2020/02/28,21:40,0.685,0.985,0.651,1.206,0.863,0.394,0.691,0.659,�k�k��,2.5,��
2020/02/28,21:50,0.683,0.985,0.648,1.205,0.864,0.393,0.692,0.657,�k��,1.9,��
2020/02/28,22:00,0.685,0.982,0.650,1.206,0.863,0.396,0.691,0.657,�k��,2.0,��
2020/02/28,22:10,0.685,0.983,0.648,1.207,0.865,0.395,0.693,0.659,�k�k��,0.6,��
2020/02/28,22:20,0.684,0.982,0.647,1.205,0.864,0.395,0.691,0.658,�k��,1.1,��
2020/02/28,22:30,0.686,0.984,0.649,1.207,0.864,0.394,0.692,0.658,���k��,0.6,��
2020/02/28,22:40,0.686,0.982,0.649,1.205,0.863,0.396,0.692,0.660,�쐼,0.8,��
2020/02/28,22:50,0.684,0.983,0.648,1.207,0.865,0.396,0.694,0.659,���쐼,1.4,��
2020/02/28,23:00,0.686,0.983,0.650,1.204,0.865,0.396,0.691,0.659,���쐼,1.4,��
2020/02/28,23:10,0.686,0.984,0.649,1.208,0.862,0.395,0.693,0.657,-,CALM,��
2020/02/28,23:20,0.685,0.985,0.649,1.207,0.864,0.396,0.692,0.659,�k��,1.1,��
2020/02/28,23:30,0.685,0.985,0.648,1.207,0.865,0.396,0.691,0.660,�k��,2.0,��
2020/02/28,23:40,0.684,0.985,0.649,1.208,0.865,0.397,0.692,0.659,���k��,1.5,��
2020/02/28,23:50,0.688,0.985,0.651,1.208,0.864,0.396,0.692,0.660,�k��,2.6,��
